Tracking 17857 objects as of 29-September-2016
HD Live streaming from Space Station
objects crossing your sky now

MINOTAUR R/B

Track MINOTAUR R/B now!
10-day predictions


NORAD ID: 26066
Int'l Code: 2000-004F
Perigee: 750.4 km
Apogee: 797.1 km
Inclination: 100.2 °
Period: 100.2 minutes
Semi major axis: 7144 km
RCS: 1.5369 m2 (large)
Launch date: January 27, 2000
Source: United States (US)
Launch site: AIR FORCE WESTERN TEST RANGE (AFWTR)

Note: This is a ROCKET BODY
Your satellite tracking list
Your tracking list is empty





NASA's NSSDC Master Catalog

Two Line Element Set (TLE):
1 26066U 00004F   16273.00324730  .00000039  00000-0  32693-4 0  9991
2 26066 100.2093 234.3889 0032660 303.0523 107.0135 14.37557509874414
Source of the keplerian elements: AFSPC

N2YO: 533